Location: Unspecified
(0.0000°N, 0.0000°E)
Time: 05:28:59
(UTC+00:00)

Vanguard 1 Rocket - All Passes

Search period start: 21 May 2026 00:00
Search period end: 31 May 2026 00:00
Orbit: 656 x 4211 km, 34.3° (Epoch: 20 May)

Date Brightness Start Highest point End Pass type
(mag) Time Alt. Az. Time Alt. Az. Time Alt. Az.
21 May - 02:37:32 10° SW 02:47:29 15° SSW 02:55:14 10° S visible
21 May - 07:47:18 10° SSW 07:51:37 19° SSE 07:55:02 10° ESE daylight
21 May - 10:12:30 10° WSW 10:16:49 40° NW 10:21:11 10° NE daylight
21 May - 17:36:57 10° NNW 17:49:05 25° NE 18:06:33 10° E daylight
21 May - 20:01:26 10° NW 20:21:41 67° NE 20:47:37 10° ESE visible
21 May - 22:31:07 10° WNW 22:55:31 60° SW 23:18:02 10° SE visible
22 May - 01:12:15 10° WSW 01:30:20 24° SSW 01:43:50 10° SSE visible
22 May - 06:35:34 10° S 06:38:08 12° SSE 06:40:20 10° SE daylight
22 May - 08:59:30 10° SW 09:04:54 71° SE 09:09:15 10° ENE daylight
22 May - 16:26:49 10° N 16:33:08 14° NNE 16:41:09 10° NE daylight
22 May - 18:48:42 10° NNW 19:05:22 47° NE 19:29:33 10° ESE visible
22 May - 21:15:33 10° WNW 21:38:20 80° SW 22:03:39 10° SE visible
22 May - 23:50:27 10° W 00:13:00 36° SSW 00:31:19 10° SSE visible
23 May - 02:40:50 10° SW 02:49:13 13° SSW 02:55:56 10° S visible
23 May - 07:46:44 10° SSW 07:52:33 30° SSE 07:56:44 10° E daylight
23 May - 10:13:47 10° W 10:17:27 23° NW 10:21:05 10° NNE daylight
23 May - 17:36:55 10° NNW 17:49:39 30° NE 18:08:48 10° E daylight
23 May - 20:01:33 10° NW 20:21:28 77° NE 20:47:55 10° ESE visible
23 May - 22:31:59 10° WNW 22:55:33 51° SW 23:17:56 10° SE visible
24 May - 01:15:10 10° WSW 01:31:36 21° SSW 01:44:08 10° SSE visible
24 May - 06:33:51 10° SSW 06:39:22 18° SSE 06:43:22 10° ESE daylight
24 May - 08:59:58 10° WSW 09:05:30 66° NW 09:09:50 10° NE daylight
24 May - 16:26:28 10° N 16:34:14 17° NE 16:44:48 10° ENE daylight
24 May - 18:48:44 10° NW 19:05:19 55° NE 19:30:22 10° ESE visible
24 May - 21:16:00 10° WNW 21:38:11 70° SW 22:03:34 10° SE visible
24 May - 23:52:25 10° W 00:13:42 31° SSW 00:31:21 10° SSE visible
25 May - 02:43:22 10° SW 02:51:08 13° SSW 02:57:25 10° SSE visible
25 May - 05:20:19 10° SSW 05:25:11 14° SSE 05:29:00 10° SE visible
25 May - 07:46:33 10° SW 07:53:23 49° SSE 07:57:55 10° ENE daylight
25 May - 10:15:49 10° WNW 10:18:06 13° NW 10:20:21 10° N daylight
25 May - 17:36:53 10° NNW 17:49:55 36° NE 18:10:31 10° E daylight
25 May - 20:01:47 10° NW 20:21:15 89° NE 20:47:59 10° SE visible
25 May - 22:33:11 10° W 22:55:49 44° SSW 23:17:48 10° SE visible
26 May - 01:18:16 10° WSW 01:33:11 19° SSW 01:44:46 10° SSE visible
26 May - 04:04:40 10° SSW 04:09:52 12° S 04:14:04 10° SSE visible
26 May - 06:33:02 10° SSW 06:40:29 27° SSE 06:45:18 10° E daylight
26 May - 09:00:47 10° WSW 09:06:02 38° NW 09:10:09 10° NNE daylight
26 May - 16:26:11 10° N 16:35:01 21° NE 16:47:53 10° E daylight
26 May - 18:48:51 10° NW 19:05:09 65° NE 19:30:51 10° ESE visible
26 May - 21:16:42 10° WNW 21:38:11 60° SW 22:03:22 10° SE visible
26 May - 23:54:49 10° WSW 00:14:46 27° SSW 00:31:32 10° SSE visible
27 May - 02:44:47 10° SSW 02:53:08 14° S 02:59:43 10° SSE visible
27 May - 05:18:57 10° SSW 05:26:35 19° SSE 05:31:48 10° ESE visible
27 May - 07:46:40 10° SW 07:54:05 81° SE 07:58:47 10° ENE daylight
27 May - 17:36:54 10° NNW 17:50:00 43° NE 18:11:46 10° ESE daylight
27 May - 20:02:12 10° WNW 20:21:08 80° SW 20:47:52 10° SE visible
27 May - 22:34:44 10° W 22:56:24 37° SSW 23:17:41 10° SSE visible
28 May - 01:21:12 10° SW 01:35:04 17° SSW 01:45:53 10° SSE visible
28 May - 04:03:28 10° SSW 04:11:33 16° S 04:17:25 10° SE visible
28 May - 06:32:34 10° SW 06:41:28 40° SSE 06:46:43 10° E daylight
28 May - 09:02:01 10° W 09:06:29 23° NW 09:10:07 10° NNE daylight
28 May - 16:25:59 10° NNW 16:35:30 25° NE 16:50:19 10° E daylight
28 May - 18:49:04 10° NW 19:05:00 76° NE 19:31:02 10° ESE visible
28 May - 21:17:41 10° WNW 21:38:26 51° SSW 22:03:06 10° SE visible
28 May - 23:57:32 10° WSW 00:16:12 24° SSW 00:32:00 10° SSE visible
29 May - 02:45:17 10° SSW 02:55:07 15° S 03:02:30 10° SSE visible
29 May - 05:18:02 10° SSW 05:27:50 27° SSE 05:33:51 10° ESE visible
29 May - 07:47:02 10° WSW 07:54:37 64° NW 07:59:22 10° NE daylight
29 May - 15:17:41 10° NNE 15:21:12 12° NE 15:25:20 10° NE daylight
29 May - 17:36:59 10° NNW 17:49:57 52° NE 18:12:35 10° ESE daylight
29 May - 20:02:48 10° WNW 20:21:10 69° SW 20:47:36 10° SE visible
29 May - 22:36:40 10° W 22:57:18 32° SSW 23:17:42 10° SSE visible
30 May - 01:23:34 10° SW 01:37:08 17° S 01:47:37 10° SSE visible
30 May - 04:02:32 10° SSW 04:13:06 21° SSE 04:20:04 10° ESE visible
30 May - 06:32:20 10° SW 06:42:17 61° SSE 06:47:47 10° ENE daylight
30 May - 09:03:55 10° WNW 09:06:57 15° NW 09:09:34 10° N daylight
30 May - 16:25:52 10° NNW 16:35:45 31° NE 16:52:12 10° E daylight
30 May - 18:49:26 10° NW 19:04:55 89° NE 19:30:59 10° SE visible
30 May - 21:18:57 10° W 21:38:56 44° SSW 22:02:51 10° SE visible
